Northfield, Minnesota, United States (55057)
Lat: 44.46N, Lon: 93.16W
Wx Zone: MNZ077
Local Info
Past Weather Observations for Today

NOTE: This archive is for the closest National Weather Service station to Northfield. Information may differ from the station used for current weather conditions.

Click here for Long-term Archive

Time Weather Temperature Dewpoint Humidity Pressure Winds Precip Visibility
16:34
Overcast
48°F / 9°C 36°F / 2°C 62% 30.12 in
(1020 mb)
NNW 11.5 mph
(NNW 19 kph)
- 10SM
16:13
Overcast
48°F / 9°C 36°F / 2°C 62% 30.12 in
(1020 mb)
NNW 12.7 mph
(NNW 20 kph)
- 10SM
15:53
Overcast
50°F / 10°C 37°F / 3°C 62% 30.12 in
(1020 mb)
NNW 9.2 mph
(NNW 15 kph)
- 10SM
15:34
Overcast
50°F / 10°C 37°F / 3°C 62% 30.12 in
(1020 mb)
NNW 11.5 mph
(NNW 19 kph)
- 10SM
15:13
Overcast
50°F / 10°C 37°F / 3°C 62% 30.09 in
(1019 mb)
NNW 8.1 mph
(NNW 13 kph)
- 10SM
14:53
Overcast
48°F / 9°C 37°F / 3°C 66% 30.09 in
(1019 mb)
NNW 6.9 mph
(NNW 11 kph)
- 10SM
14:34
Overcast
48°F / 9°C 37°F / 3°C 66% 30.09 in
(1019 mb)
N 5.8 mph
(N 9 kph)
- 10SM
14:13
Overcast
46°F / 8°C 37°F / 3°C 71% 30.09 in
(1019 mb)
NNW 6.9 mph
(NNW 11 kph)
- 10SM
13:53
Overcast
46°F / 8°C 37°F / 3°C 71% 30.09 in
(1019 mb)
NNW 4.6 mph
(NNW 7 kph)
- 10SM
13:34
Overcast
46°F / 8°C 37°F / 3°C 71% 30.06 in
(1018 mb)
N 3.5 mph
(N 6 kph)
- 10SM
13:13
Overcast
46°F / 8°C 37°F / 3°C 71% 30.09 in
(1019 mb)
NNW 5.8 mph
(NNW 9 kph)
- 10SM
12:54
Overcast
46°F / 8°C 39°F / 4°C 76% 30.09 in
(1019 mb)
NNW 5.8 mph
(NNW 9 kph)
- 10SM
12:33
Overcast
46°F / 8°C 39°F / 4°C 76% 30.09 in
(1019 mb)
N 5.8 mph
(N 9 kph)
- 10SM
12:13
Overcast
46°F / 8°C 39°F / 4°C 76% 30.09 in
(1019 mb)
NNE 4.6 mph
(NNE 7 kph)
- 10SM
11:54
Overcast
Light Rain
45°F / 7°C 39°F / 4°C 81% 30.09 in
(1019 mb)
Calm - 10SM
11:33
Overcast
45°F / 7°C 39°F / 4°C 81% 30.09 in
(1019 mb)
Calm - 10SM
11:13
Overcast
45°F / 7°C 37°F / 3°C 76% 30.09 in
(1019 mb)
Calm - 10SM
10:54
Overcast
45°F / 7°C 37°F / 3°C 76% 30.09 in
(1019 mb)
Calm - 10SM
10:34
Overcast
Light Rain
45°F / 7°C 37°F / 3°C 76% 30.09 in
(1019 mb)
Calm - 10SM
10:13
Overcast
Light Rain
43°F / 6°C 37°F / 3°C 81% 30.06 in
(1018 mb)
Calm - 10SM
09:54
Overcast
Light Rain
43°F / 6°C 37°F / 3°C 81% 30.06 in
(1018 mb)
Calm - 10SM
09:33
Overcast
Drizzle
43°F / 6°C 37°F / 3°C 81% 30.06 in
(1018 mb)
Calm - 10SM
09:14
Overcast
Light Rain
43°F / 6°C 37°F / 3°C 81% 30.06 in
(1018 mb)
Calm - 10SM
08:54
Overcast
Light Rain
43°F / 6°C 36°F / 2°C 76% 30.06 in
(1018 mb)
Calm - 10SM
08:33
Overcast
Light Rain
41°F / 5°C 36°F / 2°C 81% 30.06 in
(1018 mb)
Calm - 10SM
08:14
Overcast
41°F / 5°C 36°F / 2°C 81% 30.04 in
(1017 mb)
Calm - 10SM
07:54
Overcast
Drizzle
41°F / 5°C 36°F / 2°C 81% 30.04 in
(1017 mb)
Calm - 10SM
07:33
Overcast
41°F / 5°C 36°F / 2°C 81% 30.04 in
(1017 mb)
Calm - 10SM
07:14
Overcast
41°F / 5°C 36°F / 2°C 81% 30.04 in
(1017 mb)
Calm - 10SM
06:54
Overcast
41°F / 5°C 36°F / 2°C 81% 30.04 in
(1017 mb)
Calm - 10SM
06:33
Overcast
41°F / 5°C 34°F / 1°C 76% 30.04 in
(1017 mb)
Calm - 10SM
06:14
Overcast
41°F / 5°C 34°F / 1°C 76% 30.04 in
(1017 mb)
Calm - 10SM
05:53
Overcast
41°F / 5°C 34°F / 1°C 76% 30.04 in
(1017 mb)
S 3.5 mph
(S 6 kph)
- 10SM
05:34
Overcast
39°F / 4°C 34°F / 1°C 81% 30.04 in
(1017 mb)
Calm - 10SM
05:14
Overcast
39°F / 4°C 34°F / 1°C 81% 30.04 in
(1017 mb)
Calm - 10SM
04:53
Overcast
39°F / 4°C 34°F / 1°C 81% 30.04 in
(1017 mb)
Calm - 10SM
04:34
Overcast
39°F / 4°C 34°F / 1°C 81% 30.04 in
(1017 mb)
Calm - 10SM
04:14
Overcast
39°F / 4°C 34°F / 1°C 81% 30.04 in
(1017 mb)
Calm - 10SM
03:53
Overcast
37°F / 3°C 34°F / 1°C 87% 30.04 in
(1017 mb)
S 3.5 mph
(S 6 kph)
- 10SM
03:34
Overcast
39°F / 4°C 34°F / 1°C 81% 30.04 in
(1017 mb)
S 3.5 mph
(S 6 kph)
- 10SM
03:14
Mostly Cloudy
37°F / 3°C 32°F / 0°C 81% 30.04 in
(1017 mb)
Calm - 10SM
02:53
Mostly Cloudy
37°F / 3°C 32°F / 0°C 81% 30.04 in
(1017 mb)
Calm - 10SM
02:34
Overcast
37°F / 3°C 32°F / 0°C 81% 30.04 in
(1017 mb)
Calm - 10SM
02:13
Overcast
37°F / 3°C 32°F / 0°C 81% 30.06 in
(1018 mb)
Calm - 10SM
01:53
Overcast
37°F / 3°C 32°F / 0°C 81% 30.06 in
(1018 mb)
Calm - 10SM
01:34
Partly Cloudy
37°F / 3°C 32°F / 0°C 81% 30.06 in
(1018 mb)
Calm - 10SM
01:13
Partly Cloudy
37°F / 3°C 32°F / 0°C 81% 30.06 in
(1018 mb)
Calm - 10SM
00:53
Partly Cloudy
37°F / 3°C 32°F / 0°C 81% 30.06 in
(1018 mb)
Calm - 10SM
00:34
Mostly Cloudy
37°F / 3°C 32°F / 0°C 81% 30.06 in
(1018 mb)
Calm - 10SM
00:13
Overcast
37°F / 3°C 32°F / 0°C 81% 30.06 in
(1018 mb)
SE 3.5 mph
(SE 6 kph)
- 10SM
Time Weather Temperature Dewpoint Humidity Pressure Winds Precip Visibility


Weather for websites

WeatherForYou.com, LLC is not responsible for any damages or problems caused by this service. Current weather conditions are obtained from the closest station including government and personal stations which may have varying degrees of accuracy. Weather forecasts are derived from the NOAA NDFD. Like all things, this site belongs to Jesus Christ... He just trusts me to maintain it. If you have any questions or comments email webmaster@weatherforyou.com

Copyright © 2014, WeatherForYou.com LLC. All rights reserved.